Year,Month,Day,Hour,Minute,Value (Times are PST for temperature in C)
2006,02,19,03,30,-2.80
2006,02,19,03,31,-2.80
2006,02,19,03,32,-2.70
2006,02,19,03,33,-2.70
2006,02,19,03,34,-2.70
2006,02,19,03,35,-2.70
2006,02,19,03,36,-2.70
2006,02,19,03,37,-2.70
2006,02,19,03,38,-2.70
2006,02,19,03,39,-2.70
2006,02,19,03,40,-2.70
2006,02,19,03,41,-2.70
2006,02,19,03,42,-2.70
2006,02,19,03,43,-2.70
2006,02,19,04,15,-2.70
2006,02,19,04,16,-2.70
2006,02,19,04,17,-2.70
2006,02,19,04,18,-2.80
2006,02,19,04,19,-2.80
2006,02,19,04,20,-2.80
2006,02,19,04,21,-2.80
2006,02,19,04,22,-2.80
2006,02,19,04,23,-2.80
2006,02,19,04,24,-2.80
2006,02,19,04,25,-2.80
2006,02,19,04,26,-2.80
2006,02,19,04,27,-2.80
2006,02,19,04,28,-2.80
2006,02,19,04,29,-2.80
2006,02,19,04,30,-2.80
2006,02,19,04,31,-2.80
2006,02,19,04,32,-2.80
2006,02,19,04,33,-2.80
2006,02,19,04,34,-2.80
2006,02,19,04,35,-2.80
2006,02,19,04,36,-2.80
2006,02,19,04,37,-2.80
2006,02,19,04,38,-2.80
2006,02,19,04,39,-2.80
2006,02,19,05,46,-2.80
2006,02,19,05,47,-2.80
2006,02,19,05,48,-2.70
2006,02,19,05,49,-2.70
2006,02,19,05,50,-2.60
2006,02,19,05,51,-2.60
2006,02,19,05,52,-2.60
2006,02,19,05,53,-2.60
2006,02,19,05,54,-2.60
2006,02,19,05,55,-2.60
2006,02,19,05,56,-2.60
2006,02,19,05,57,-2.60
2006,02,19,05,58,-2.60
2006,02,19,05,59,-2.60
2006,02,19,06,00,-2.60
2006,02,19,06,01,-2.60
2006,02,19,06,02,-2.60
2006,02,19,06,03,-2.60
2006,02,19,06,04,-2.60
2006,02,19,06,05,-2.60
2006,02,19,06,06,-2.60
2006,02,19,06,07,-2.60
2006,02,19,06,08,-2.60
2006,02,19,06,09,-2.60
2006,02,19,06,24,-2.80
2006,02,19,06,25,-2.80
2006,02,19,06,26,-2.80
2006,02,19,06,27,-2.80
2006,02,19,06,28,-2.90
2006,02,19,06,29,-2.90
2006,02,19,06,30,-2.90
2006,02,19,06,31,-3.00
2006,02,19,06,32,-3.00
2006,02,19,06,33,-3.10
2006,02,19,06,34,-3.10
2006,02,19,06,35,-3.10
2006,02,19,06,36,-3.10
2006,02,19,06,37,-3.10
2006,02,19,06,38,-3.20
2006,02,19,06,39,-3.20
2006,02,19,06,40,-3.20
2006,02,19,06,41,-3.20
2006,02,19,06,42,-3.20
2006,02,19,06,43,-3.20
2006,02,19,06,44,-3.20
2006,02,19,06,45,-3.30
2006,02,19,06,46,-3.30
2006,02,19,06,47,-3.30
2006,02,19,06,48,-3.30
2006,02,19,06,49,-3.30
2006,02,19,06,50,-3.30
2006,02,19,06,51,-3.30
2006,02,19,06,52,-3.30
2006,02,19,06,53,-3.30
2006,02,19,06,54,-3.30
2006,02,19,06,55,-3.30
2006,02,19,06,56,-3.20
2006,02,19,06,57,-3.20
2006,02,19,06,58,-3.30
2006,02,19,06,59,-3.30
2006,02,19,07,00,-3.30
2006,02,19,07,01,-3.30
2006,02,19,07,02,-3.30
2006,02,19,07,03,-3.30
2006,02,19,07,04,-3.30
2006,02,19,07,05,-3.30
2006,02,19,07,06,-3.30
2006,02,19,07,07,-3.30
2006,02,19,07,08,-3.30
2006,02,19,07,09,-3.30
2006,02,19,07,10,-3.30
2006,02,19,07,11,-3.30
2006,02,19,07,12,-3.30
2006,02,19,07,13,-3.40
2006,02,19,07,14,-3.40
2006,02,19,07,15,-3.50
2006,02,19,07,16,-3.50
2006,02,19,07,17,-3.50
2006,02,19,07,18,-3.60
2006,02,19,07,19,-3.60
2006,02,19,07,20,-3.70
2006,02,19,07,21,-3.70
2006,02,19,07,22,-3.70
2006,02,19,07,23,-3.70
2006,02,19,07,24,-3.70
2006,02,19,07,25,-3.80
2006,02,19,07,26,-3.80
2006,02,19,07,27,-3.80
2006,02,19,07,28,-3.70
2006,02,19,07,29,-3.70
2006,02,19,07,30,-3.70
2006,02,19,07,31,-3.60
2006,02,19,07,32,-3.60
2006,02,19,07,33,-3.60
2006,02,19,07,34,-3.60
2006,02,19,07,35,-3.60
2006,02,19,07,36,-3.60
2006,02,19,07,37,-3.60
2006,02,19,07,38,-3.60
2006,02,19,07,39,-3.60
2006,02,19,07,40,-3.60
2006,02,19,07,41,-3.60
2006,02,19,07,42,-3.60
2006,02,19,08,14,-2.80
2006,02,19,08,15,-2.80
2006,02,19,08,16,-2.70
2006,02,19,08,17,-2.70
2006,02,19,08,18,-2.60
2006,02,19,08,19,-2.60
2006,02,19,08,20,-2.50
2006,02,19,08,21,-2.50
2006,02,19,08,22,-2.50
2006,02,19,08,23,-2.40
2006,02,19,08,24,-2.30
2006,02,19,08,25,-2.30
2006,02,19,08,26,-2.20
2006,02,19,08,27,-2.10
2006,02,19,08,28,-2.00
2006,02,19,08,29,-1.90
2006,02,19,08,30,-1.80
2006,02,19,08,31,-1.80
2006,02,19,08,32,-1.80
2006,02,19,08,33,-1.80
2006,02,19,08,34,-1.80
2006,02,19,08,35,-1.70
2006,02,19,08,36,-1.50
2006,02,19,08,37,-1.50
2006,02,19,08,38,-1.40
2006,02,19,08,39,-1.30
2006,02,19,08,40,-1.20
2006,02,19,08,41,-1.10
2006,02,19,08,42,-1.10
2006,02,19,08,43,-1.10
2006,02,19,08,44,-1.00
2006,02,19,08,45,-0.90
2006,02,19,08,46,-0.90
2006,02,19,08,47,-0.90
2006,02,19,08,48,-0.80
2006,02,19,08,49,-0.70
2006,02,19,08,50,-0.70
2006,02,19,08,51,-0.70
2006,02,19,08,52,-0.60
2006,02,19,08,53,-0.50
2006,02,19,08,54,-0.40
2006,02,19,08,55,-0.40
2006,02,19,08,56,-0.30
2006,02,19,08,57,-0.20
2006,02,19,08,58,-0.20
2006,02,19,08,59,-0.10
2006,02,19,09,00,0.00
2006,02,19,09,01,0.10
2006,02,19,09,02,0.20
2006,02,19,09,03,0.30
2006,02,19,09,04,0.40
2006,02,19,09,05,0.50
2006,02,19,09,06,0.60
2006,02,19,09,07,0.80
2006,02,19,09,08,0.90
2006,02,19,09,09,1.00
2006,02,19,09,10,1.10
2006,02,19,09,11,1.20
2006,02,19,09,12,1.30
2006,02,19,09,13,1.40
2006,02,19,09,14,1.50
2006,02,19,09,15,1.50
2006,02,19,09,16,1.60
2006,02,19,09,17,1.70
2006,02,19,09,18,1.80
2006,02,19,09,19,1.90
2006,02,19,09,20,2.00
2006,02,19,09,21,2.00
2006,02,19,09,22,2.10
2006,02,19,09,23,2.20
2006,02,19,09,24,2.20
2006,02,19,09,25,2.20
2006,02,19,09,26,2.20
2006,02,19,09,27,2.20
2006,02,19,09,28,2.20
2006,02,19,09,29,2.20
2006,02,19,09,30,2.20
2006,02,19,09,31,2.20
2006,02,19,09,32,2.20
2006,02,19,09,33,2.20
2006,02,19,11,30,4.70
2006,02,19,11,31,4.70
2006,02,19,11,32,4.70
2006,02,19,11,33,4.60
2006,02,19,11,34,4.60
2006,02,19,11,35,4.60
2006,02,19,11,36,4.60
2006,02,19,11,37,4.60
2006,02,19,11,38,4.60
2006,02,19,11,39,4.60
2006,02,19,11,40,4.60
2006,02,19,11,41,4.60
2006,02,19,11,42,4.60
2006,02,19,11,43,4.60
2006,02,19,16,15,5.40
2006,02,19,16,16,5.40
2006,02,19,16,17,5.40
2006,02,19,16,18,5.40
2006,02,19,16,19,5.40
2006,02,19,16,20,5.40
2006,02,19,16,21,5.40
2006,02,19,16,22,5.30
2006,02,19,16,23,5.30
2006,02,19,16,24,5.30
2006,02,19,16,25,5.30
2006,02,19,16,26,5.30
2006,02,19,16,27,5.30
2006,02,19,16,28,5.30
2006,02,19,16,29,5.30
2006,02,19,16,30,5.30
2006,02,19,16,31,5.30
2006,02,19,16,32,5.30
2006,02,19,16,33,5.30
2006,02,19,16,34,5.30
2006,02,19,23,20,2.30
2006,02,19,23,21,2.40
2006,02,19,23,22,2.40
2006,02,19,23,23,2.50
2006,02,19,23,24,2.50
2006,02,19,23,25,2.50
2006,02,19,23,26,2.50
2006,02,19,23,27,2.50
2006,02,19,23,28,2.50
2006,02,19,23,29,2.50
2006,02,19,23,30,2.50
2006,02,19,23,31,2.50
2006,02,19,23,32,2.50
2006,02,19,23,33,2.50
2006,02,19,23,34,2.50
2006,02,19,23,35,2.40
2006,02,19,23,36,2.40
2006,02,19,23,37,2.30
2006,02,19,23,38,2.30
2006,02,19,23,39,2.20
2006,02,19,23,40,2.20
2006,02,19,23,41,2.20
2006,02,19,23,42,2.20
2006,02,19,23,43,2.20
2006,02,19,23,44,2.20
2006,02,19,23,45,2.20
2006,02,19,23,46,2.20
2006,02,19,23,47,2.20
2006,02,19,23,48,2.10
2006,02,19,23,49,2.10
2006,02,19,23,50,2.10
2006,02,19,23,51,2.10
2006,02,19,23,52,2.00
2006,02,19,23,53,2.00
2006,02,19,23,54,2.00
2006,02,19,23,55,2.00
2006,02,19,23,56,1.90
2006,02,19,23,57,1.90
2006,02,19,23,58,1.90
2006,02,19,23,59,1.90
